Dauntless Aviation
Airports North America Canada
CYHZ
YHZ

Halifax / Stanfield International Airport

Halifax, CANADA

Airport Info
Suggest Updated Information for this Airport

Location

Latitude / Longitude: 44°52'50"N / 63°30'30"W
  44°52.848'N / 63°30.516'W
  44.8808 / -63.5086

Nearby radio navigation aids

IHZ HALIFAX DME on field.
YHZ HALIFAX VOR/DME. 261.1° 5.2nm from YHZ to field.
YYZ TORONTO VOR/DME. 310.5° 12.2nm from YYZ to field.
ZHZ SPLIT CROW NDB. 55.9° 5.8nm from ZHZ to field.
ZNS BLUENOSE NDB. 233.7° 6.2nm from ZNS to field.

Runway Information

Runway 05 /23

Dimensions: 8800 x 200 ft.
Surface: ASP
 
Runway 05
Runway 23
Latitude: 44.868686 44.888408
Longitude: -63.524067 -63.504622
Elevation: 477 ft. 477 ft.
Runway true heading: 33.2 213.2
 

Runway 14 /32

Dimensions: 7700 x 200 ft.
Surface: ASP
 
Runway 14
Runway 32
Latitude: 44.893778 44.881564
Longitude: -63.517222 -63.492969
Elevation: 435 ft. 435 ft.
Runway true heading: 123.2 302.8
 

Instrument Procedures

  Airport Diagram
  Parking Areas
  Low Visibility Taxi Chart

IAPs (Instrument Approach Procedures)

  Low Visibility Procedures
Satellite photo at:
Airport distance calculator
From:
Weather Reports

METAR

CYHZ

CYHZ 220310Z 32019G28KT 8SM -SHRA OVC008 02/02 A2944 RMK SC8 CVCTV CLD EMBD SLP976
CYAW
14.9nm SE
CYAW 220300Z 30022G35KT 15SM BKN018 OVC055 05/03 A2945 RMK SC6SC2 DA-451FT LAST OBS/NEXT 221000 UTC SLP974
CXMI
16.9nm S
CXMI 220300Z AUTO 31013G24KT 05/ RMK AO1 PK WND 34027/0216 SLP972 T0047 53013
CZDB
32.2nm N
CZDB 220300Z AUTO 34012G23KT 02/01 RMK AO1 3PAST HR 3018 PK WND 00023/0258 SLP980 P0005 T00150010 50018

TAF

CYHZ
TAF CYHZ 220238Z 2203/2224 31025G35KT P6SM -RA SCT007 OVC012 TEMPO 2203/2215 4SM -DZ -RA BR BKN007 OVC015 FM221500 35020G35KT P6SM OVC020 FM221800 36020G30KT P6SM OVC025 RMK NXT FCST BY 220600Z
CYAW
14.9nm SE
TAF AMD CYAW 220050Z 2200/2206 30025G35KT P6SM BKN025 TEMPO 2200/2204 P6SM -DZ -SHRA OVC020 FM220400 30020G30KT P6SM SCT012 OVC020 TEMPO 2204/2206 5SM -SHRA BR SCT010 OVC015 RMK NXT FCST BY 220600Z
Safelog

 

Dauntless Aviation

© 2007-2019 Dauntless Aviation, all rights reserved
Information provided via PilotNav comes from a variety of official and unofficial data sources. As errors are possible, do not use PilotNav for primary flight planning purposes. Verify any information that you receive via PilotNav with current and canonical charts and other official documents. The material in this database is subject to database copyrights held by Dauntless Aviation and may not be copied without the express permission of Dauntless Aviation - licenses for use of part of all of this data are available for purchase; enquire via the Dauntless Aviation helpdesk. A number of mechanisms and markers exist in the database to protect against and identify infringement / copyright. Automated queries against this website are stictly prohibited, and all activity is logged and analyzed.